Hourly Data Report for October 24, 2013

All times are specified in Local Standard Time (LST). Add 1 hour to adjust for Daylight Saving Time where and when it is observed.

QIKIQTARJUAQ A
NUNAVUT

67°32'48.000" N
64°01'54.000" W
5.50 m
2400577
YVM

Download Data

Hourly Data (October 2013)
Hourly Data Report for October 24, 2013
Temp Definition
°C
Dew Point Temp Definition
°C
Rel Hum Definition
%
Wind Dir Definition
10's deg

Wind Spd Definition
km/h
Visibility Definition
km
Stn Press Definition
kPa
Hmdx Definition


Wind Chill Definition


Weather Definition


TIME
00:00 Legend Double Dagger -6.8 -10.1 78 19 9 16.1 101.13   -11 LegendNANA
01:00 Legend Double Dagger -7.2 -10.2 80 20 13 16.1 101.10   -13 LegendNANA
02:00 Legend Double Dagger -7.2 -10.3 79 17 5 16.1 101.10   -10 LegendNANA
03:00 Legend Double Dagger -7.0 -10.2 78 20 15 16.1 101.09   -13 LegendNANA
04:00 Legend Double Dagger -6.2 -9.7 77 20 15 16.1 101.07   -12 LegendNANA
05:00 Legend Double Dagger -6.8 -10.0 78 19 13 16.1 101.05   -12 LegendNANA
06:00 Legend Double Dagger -6.7 -9.9 78 20 15 16.1 101.03   -13 LegendNANA
07:00 Legend Double Dagger -7.5 -10.5 79 13 8 16.1 101.02   -12 LegendNANA
08:00 Legend Double Dagger -7.6 -10.8 78 14 8 16.1 101.00   -12 LegendNANA
09:00 Legend Double Dagger -6.4 -9.3 80 LegendMM 4 16.1 100.97   -8 LegendNANA
10:00 Legend Double Dagger -6.1 -9.6 77 15 8 16.1 100.91   -10 LegendNANA
11:00 Legend Double Dagger -5.9 -8.7 81 19 5 16.1 100.88   -8 LegendNANA
12:00 Legend Double Dagger -5.6 -8.9 78 20 13 16.1 100.87   -11 LegendNANA
13:00 Legend Double Dagger -6.1 -8.7 82 14 8 16.1 100.85   -10 LegendNANA
14:00 Legend Double Dagger -6.9 -8.8 87 17 5 16.1 100.81   -9 LegendNANA
15:00 Legend Double Dagger -7.1 -9.0 86 LegendMM 4 16.1 100.78   -9 LegendNANA
16:00 Legend Double Dagger -7.8 -9.9 85 15 9 16.1 100.76   -12 LegendNANA
17:00 Legend Double Dagger -7.6 -9.3 88 15 9 16.1 100.73   -12 LegendNANA
18:00 Legend Double Dagger -7.3 -9.5 85 19 5 16.1 100.71   -10 LegendNANA
19:00 Legend Double Dagger -7.2 -9.4 84 17 8 16.1 100.64   -11 LegendNANA
20:00 Legend Double Dagger -7.8 -9.8 86 LegendMM 4 16.1 100.59   -10 LegendNANA
21:00 Legend Double Dagger -7.9 -10.0 85 16 8 16.1 100.53   -12 LegendNANA
22:00 Legend Double Dagger -8.2 -10.6 83 15 9 16.1 100.48   -13 LegendNANA
23:00 Legend Double Dagger -8.0 -10.0 86 15 8 16.1 100.43   -12 LegendNANA

Notes on Data Quality.

Legend

  • E = Estimated
  • M = Missing
  • NA = Not Available
  • ‡ = Partner data that is not subject to review by the National Climate Archives
Date modified: